カタログに戻る

ONEWEB-0012

運用中通信PO
NORAD 44057·PAYLOAD·🇬🇧 United Kingdom

打ち上げ Feb 27, 2019 から Guiana Space Centre

Loading…

次のパス (今後24時間)

TLE

最新Source: CelesTrak SupGP

元期: Sep 14, 2026, 20:37 UTC

1 44057C 19010A   26257.85920556  .00000825  00000+0  21596-2 0  2579
2 44057  87.9147 210.9763 0002521  87.3832 299.3459 13.16596525    12

AllMySatでONEWEB-0012をリアルタイム追跡

Download on the App Store